User: anonymous   Login
Location: Newark
(42.5998°N, 13.2232°E)
Time: 01:16:35
(UTC+00:00)
Language:

DOVE 4 - Orbit

View from above orbital plane
View from above orbital plane
View from above satellite
View from above satellite

Ground track
Ground track

The orbit data is extracted from the following two-line orbital elements,

1 39430U 13066Q   20093.76915350  .00000232  00000-0  50568-4 0  9990
2 39430  97.7840  36.8982 0152450  63.1992 298.4712 14.59367674338761
Epoch (UTC): 02 April 2020 18:27:34
Eccentricity: 0.0152450
inclination: 97.7840°
perigee height: 587 km
apogee height: 803 km
right ascension of ascending node: 36.8982°
argument of perigee: 63.1992°
revolutions per day: 14.59367674
mean anomaly at epoch: 298.4712°
orbit number at epoch: 33876

The dashed part of the orbit path shows where the satellite is in the earth's shadow,  

DLR